RH
90 93 95 96 99 97 97 99 98 98 96 92 90 91 91 91 90 89 85 79 79 82 81 82 83 83 84 83 89 95 88 80 76 77 76 65 61 65 68 80 88 81 77 79 75 68 69 71 74 77 79 83 87 86 86 88 86 82 79 75 76 78 77 78 82 82 80 80 78 76 75 74 75 75 72 73 81 87 87 91 93 86 84 88 83
73 69 69 76 81 81 85 92 95 91 91 94 94 95 95 97 94 88 87 85 82 83 84 78 72 77 89 91 90 93 88 83 79 73 71 66 71 85 88 90 93 84 77 80 78 79 84 85 87 91 90 87 84 84 84 85 89 89 86 85 84 86 84 81 83 84 85 87 86 81 74 73 77 79 78 77 79 80 80 87 90 88 92 93 85
70 53 53 61 66 78 85 88 89 75 72 87 89 87 90 89 86 84 86 87 83 85 79 68 72 83 93 94 93 93 88 87 88 82 82 82 81 89 90 88 90 88 86 87 88 90 91 91 92 92 90 87 86 88 88 87 90 89 87 88 87 88 88 82 83 88 89 91 92 86 80 78 74 73 78 80 81 80 80 83 81 82 90 87 82
75 55 51 56 63 84 94 88 84 63 58 84 88 81 89 90 87 85 84 84 81 82 76 67 77 87 90 96 93 86 83 87 92 92 96 97 90 89 92 93 94 94 94 93 91 89 86 84 85 88 90 91 90 90 90 89 89 88 88 90 90 91 90 85 84 88 92 94 93 87 82 81 75 72 78 75 72 77 80 81 79 79 83 78 79
72 60 52 51 56 76 92 88 80 65 59 78 81 78 91 95 92 88 83 83 78 76 75 67 75 87 92 93 80 71 78 84 89 92 96 99 96 95 95 96 97 94 90 88 85 80 77 78 81 87 92 94 94 90 90 89 89 90 89 90 92 91 92 91 87 88 91 92 94 93 89 87 80 78 82 74 68 77 83 80 76 76 81 83 85
66 57 51 57 56 60 82 81 70 67 65 71 76 80 95 98 95 89 79 78 74 68 71 66 72 88 90 79 69 72 82 87 89 90 94 99 98 98 94 83 80 79 72 70 74 73 72 78 87 94 94 93 93 91 91 91 91 93 92 92 93 90 91 93 91 88 87 90 96 97 93 90 85 83 87 81 74 79 82 84 83 78 77 77 78
80 63 51 60 57 52 69 68 53 56 62 74 84 87 93 95 93 86 69 68 69 64 67 66 71 88 90 80 80 86 90 93 95 93 96 100 98 100 96 75 59 65 70 69 75 78 76 83 95 97 93 93 94 93 91 92 95 95 92 91 92 92 91 93 93 88 83 85 91 91 86 87 89 89 94 90 85 84 79 82 88 85 80 75 73
88 74 55 56 63 60 58 57 55 56 61 76 89 91 91 91 91 83 67 67 75 75 72 70 79 94 94 89 92 93 92 93 94 97 100 100 98 99 98 84 66 72 82 75 76 87 87 91 98 95 93 96 93 91 90 90 92 92 89 88 89 91 91 91 90 84 84 84 85 87 85 85 87 88 93 93 93 91 80 76 83 88 83 75 72
79 69 56 54 74 78 56 55 70 68 70 83 90 91 89 89 92 88 76 75 82 85 82 79 88 98 97 92 92 94 96 95 93 97 99 97 99 99 97 94 85 85 87 76 79 97 98 94 97 96 96 97 94 94 93 90 90 89 90 89 87 90 90 91 87 80 86 89 86 90 88 82 80 80 88 93 94 95 88 82 84 90 88 79 72
73 70 67 62 83 96 72 65 76 72 78 90 88 88 87 86 92 93 86 84 86 87 87 91 96 99 97 90 84 88 94 94 94 96 97 96 98 100 98 99 98 94 87 79 83 92 90 85 85 88 91 91 90 90 87 90 94 91 90 87 85 90 91 92 90 83 87 89 86 91 92 88 86 84 86 88 89 94 95 91 86 86 90 89 79
73 76 81 80 90 101 91 82 81 79 85 87 81 85 88 85 88 90 85 85 87 83 85 96 100 97 94 87 83 88 93 95 97 97 98 98 98 97 95 96 100 96 91 91 86 80 80 77 73 80 85 79 74 70 71 85 96 94 90 86 85 89 90 90 89 84 87 89 86 89 93 93 94 94 90 85 85 91 94 94 93 89 87 89 84
75 77 83 89 95 98 99 96 89 90 94 86 77 78 80 78 82 89 86 82 80 77 85 99 98 91 89 90 93 96 96 97 99 99 99 98 95 91 88 93 100 97 96 100 87 76 77 74 69 74 74 67 64 63 66 81 93 92 87 86 84 85 87 89 88 83 84 87 86 85 85 86 90 93 94 94 92 92 92 91 93 92 85 82 84
77 81 82 90 97 96 100 101 95 98 97 85 79 80 77 69 74 88 90 85 83 85 95 99 91 87 91 96 99 99 99 99 99 100 98 94 94 93 92 96 99 97 99 95 78 67 67 63 62 64 63 63 64 65 73 87 95 92 86 86 86 85 86 90 88 85 85 84 83 80 76 81 88 90 94 97 92 88 92 93 89 89 86 82 83
77 83 84 89 97 96 98 99 96 98 89 75 76 83 81 75 80 91 88 87 93 97 98 93 88 93 98 100 99 99 100 100 100 101 99 97 97 98 97 96 98 100 96 83 65 60 62 61 61 63 64 67 68 69 75 86 94 93 88 86 85 87 90 89 85 84 84 78 74 72 69 73 81 84 90 95 92 89 91 92 88 85 85 85 84
76 83 84 88 95 96 95 93 94 97 86 77 79 80 82 86 92 95 91 93 98 98 95 92 94 99 100 99 100 100 100 97 95 95 94 95 93 92 89 86 93 95 82 69 63 64 66 64 65 66 66 67 70 68 69 83 96 94 89 82 75 80 85 81 76 75 74 70 71 72 69 71 74 76 86 95 98 98 94 92 91 89 88 87 85
77 84 86 89 94 95 92 87 90 98 91 87 90 86 88 95 97 97 97 97 98 98 99 97 99 100 99 100 100 100 99 94 91 87 82 81 80 79 76 70 78 81 69 64 67 67 66 65 67 69 68 69 67 64 69 86 94 87 84 79 72 78 84 73 65 66 67 69 74 73 69 72 73 74 87 96 96 96 95 96 98 97 96 94 90
81 86 88 91 95 94 91 86 88 97 95 89 90 89 90 95 98 98 98 99 99 100 100 99 100 99 99 100 99 101 97 90 90 85 73 70 66 63 62 62 69 71 67 71 73 69 69 69 69 67 66 65 62 65 74 80 80 78 77 76 74 82 87 76 64 66 69 72 76 76 71 71 73 76 85 91 90 90 92 95 97 96 97 97 95
83 89 92 93 96 94 90 90 90 92 91 86 86 87 89 93 97 99 99 100 100 100 99 100 100 99 99 98 97 97 91 85 90 86 71 70 67 57 57 62 65 68 71 75 74 69 69 68 67 69 73 75 72 75 81 79 73 67 65 77 84 81 80 77 69 67 71 75 79 79 73 71 73 75 79 83 87 88 89 92 94 97 99 98 98
85 91 95 93 96 97 93 92 91 88 88 89 89 90 93 96 97 99 100 100 99 99 100 100 98 96 96 97 95 94 91 85 84 79 71 73 71 60 59 63 65 69 70 74 77 77 78 77 77 84 91 93 90 86 87 86 78 66 70 89 91 76 75 80 75 71 71 74 76 72 67 67 69 72 74 78 83 87 90 92 94 98 100 99 98
85 89 97 96 96 99 96 93 93 93 95 96 94 95 98 99 97 98 100 100 99 99 99 99 96 93 94 98 94 89 89 81 70 65 64 64 61 59 64 66 66 68 70 80 92 91 89 89 89 92 93 94 94 88 85 90 90 84 82 84 80 78 85 90 85 77 69 68 69 66 64 65 68 72 73 73 76 83 91 94 95 97 100 100 99
83 86 93 96 97 99 97 96 96 98 100 98 98 99 100 100 98 98 99 99 99 99 99 99 96 94 96 96 89 80 77 70 62 59 56 53 57 62 67 67 65 71 81 93 98 92 89 91 90 89 88 90 92 89 86 91 96 96 86 77 81 93 98 95 92 85 71 64 64 63 62 64 69 73 71 69 73 81 90 95 96 97 98 100 100
81 81 85 89 95 98 97 97 98 100 100 99 100 100 99 100 99 99 100 99 100 99 99 99 96 97 97 90 84 78 72 66 61 59 55 56 62 67 70 70 69 78 93 100 95 89 86 86 86 88 88 88 90 92 93 93 96 98 94 89 94 100 99 98 98 94 82 68 60 58 59 64 69 69 70 75 79 81 89 96 97 98 99 100 99
81 81 83 87 92 97 98 98 99 100 100 99 100 99 99 100 100 100 100 99 100 99 99 99 97 98 95 85 80 77 74 71 64 58 58 63 68 70 72 75 78 87 98 96 89 86 85 82 82 86 88 88 89 91 93 95 96 96 95 95 96 97 98 98 98 99 92 73 59 59 63 66 69 67 67 75 78 78 88 97 98 98 100 99 96
82 83 87 90 94 98 99 100 100 100 100 100 100 100 100 100 99 100 100 100 100 99 99 99 99 99 93 84 83 81 74 69 61 57 63 69 72 74 78 84 89 95 99 93 84 82 85 84 80 84 90 92 89 87 86 89 93 92 90 92 93 93 94 95 97 101 98 83 70 69 71 72 73 71 69 70 69 71 81 91 95 98 99 98 92
86 88 92 96 97 99 100 100 100 100 100 100 99 100 100 100 100 100 100 100 100 98 97 98 100 99 93 89 89 80 66 61 59 61 68 72 71 72 83 95 98 97 99 94 84 82 87 88 83 83 85 84 83 85 86 86 88 90 91 91 90 91 92 94 96 99 99 94 87 83 79 76 77 78 78 75 72 69 71 76 83 92 97 97 90
92 92 94 97 99 100 100 100 100 100 100 100 100 100 99 100 100 100 100 100 100 98 97 99 98 95 93 92 85 70 60 61 61 61 67 72 70 72 86 99 98 96 97 93 89 90 91 86 78 73 70 65 66 74 81 84 88 90 92 92 91 90 91 93 94 97 100 99 95 92 87 82 83 86 86 82 77 74 70 69 71 78 89 95 91
94 96 95 96 99 100 99 100 100 100 100 100 100 100 100 100 100 100 100 99 98 98 98 98 96 93 92 88 76 67 68 67 62 61 67 69 69 78 94 99 93 92 93 90 90 87 79 72 66 64 63 60 60 64 69 77 86 91 91 91 91 87 87 91 92 94 99 99 96 94 91 88 88 93 95 90 84 79 75 72 68 67 75 87 93
92 95 94 93 97 99 100 100 100 99 100 100 100 100 100 100 100 100 99 95 95 97 98 98 97 95 92 85 77 73 72 67 61 64 70 71 72 85 100 99 92 92 91 89 87 76 67 66 65 63 63 61 59 57 58 66 78 86 88 87 88 87 86 90 92 92 94 97 98 94 89 89 90 93 97 95 89 82 77 74 68 62 62 71 89
90 93 93 91 96 100 100 99 99 101 100 99 99 99 99 100 99 98 97 93 93 96 99 99 99 98 94 91 87 79 71 65 62 66 76 83 89 95 99 96 96 96 93 91 90 79 69 67 65 62 58 52 45 41 47 58 67 78 86 83 79 81 82 84 88 88 84 85 91 91 86 85 89 94 97 97 92 82 75 74 67 58 52 56 80
89 93 95 94 98 100 100 100 100 100 97 97 99 100 100 99 96 95 96 96 96 98 100 100 98 98 99 97 90 77 68 66 68 77 88 94 98 99 96 94 96 96 94 94 90 78 69 65 61 52 41 31 26 28 40 49 50 61 78 75 62 61 68 72 77 81 78 71 69 69 69 70 81 95 97 94 94 83 71 73 73 64 54 55 76
88 94 97 98 100 99 99 100 99 98 99 97 96 95 93 90 90 92 92 94 97 98 99 99 97 98 100 99 89 77 74 78 82 91 96 96 97 98 96 96 96 94 94 91 82 70 64 57 44 31 22 16 16 22 30 33 28 34 54 58 42 36 43 48 58 69 67 57 46 39 38 45 65 91 97 93 96 89 73 73 79 76 70 69 79
88 92 96 98 100 99 100 99 98 100 97 87 81 84 83 82 87 91 86 86 93 96 98 99 99 99 100 99 94 88 88 91 91 93 94 93 94 96 96 98 97 94 92 84 72 60 49 37 23 15 14 11 13 18 19 20 16 15 32 42 28 18 22 25 31 42 42 36 33 27 25 28 43 71 88 89 91 90 81 78 80 80 82 81 78
91 91 94 98 100 99 96 93 94 93 83 74 79 88 88 84 87 89 85 86 92 95 99 100 99 99 97 95 94 91 91 91 89 89 90 91 92 93 94 96 96 93 84 67 53 40 27 19 13 11 11 9 13 18 14 14 13 9 29 49 31 10 12 14 13 19 22 22 25 24 22 23 29 47 68 77 80 80 78 79 77 75 81 82 74
95 95 97 100 99 93 87 86 87 83 77 80 89 93 90 87 87 88 89 93 97 98 100 100 97 95 91 89 89 87 86 87 88 90 90 89 91 93 94 93 89 80 63 43 31 22 15 13 10 9 10 9 13 16 12 12 11 10 34 62 50 20 11 12 11 12 14 15 19 21 21 21 23 31 45 61 74 76 71 73 76 74 76 77 71
95 97 99 99 93 86 83 85 86 83 84 92 96 94 94 95 95 95 96 98 100 100 100 98 92 87 86 86 86 85 87 88 89 90 89 90 94 94 91 82 70 56 41 27 19 14 11 11 10 8 9 9 11 15 12 8 12 26 47 62 57 37 21 14 12 12 15 14 14 17 20 21 22 23 27 39 59 76 78 74 75 74 71 70 66
94 98 100 95 86 83 86 91 91 90 92 96 96 96 97 97 96 98 100 100 99 99 99 95 86 81 82 82 80 84 89 88 86 88 91 93 91 82 69 55 42 34 30 27 22 15 10 9 9 9 9 10 10 13 12 8 20 50 69 65 57 48 36 27 21 14 13 15 16 16 16 18 21 22 22 21 30 58 82 83 76 73 72 70 65
93 98 97 89 82 85 91 94 93 91 93 95 94 94 95 96 96 97 99 99 99 98 95 90 84 81 80 78 78 85 90 88 88 90 88 84 74 57 42 31 23 20 24 27 24 16 11 9 10 10 10 10 11 11 11 11 25 55 73 70 67 64 56 51 46 33 19 14 16 18 16 17 20 21 23 19 13 33 71 88 81 74 69 68 65
91 94 93 87 83 87 91 91 90 89 91 92 92 91 92 93 92 90 91 93 94 93 88 85 84 83 81 80 81 85 87 88 89 86 77 69 57 40 27 22 18 17 19 20 17 11 10 10 10 10 11 11 12 12 11 12 24 49 64 65 67 72 71 66 62 57 45 28 19 20 19 18 21 21 22 23 15 20 49 77 85 81 72 66 66
88 88 89 88 88 90 91 91 91 90 90 90 90 90 89 87 85 83 83 83 85 86 85 83 83 82 82 83 81 82 87 90 84 73 63 56 44 27 19 20 23 28 32 30 21 13 11 11 10 10 12 12 11 12 12 12 19 36 57 65 65 67 71 70 65 62 58 47 34 29 24 21 24 24 22 22 18 16 32 57 73 79 77 69 66
87 86 86 88 91 93 92 91 91 92 91 89 88 87 86 85 85 85 85 83 82 83 83 82 82 82 82 82 82 85 90 86 72 55 46 43 33 21 23 36 47 53 52 44 30 18 12 12 12 11 10 11 12 11 12 13 14 21 38 58 69 69 66 65 64 62 61 57 46 36 30 25 24 25 25 22 18 16 29 49 61 69 74 70 66
86 86 87 91 94 93 90 89 91 92 91 89 87 86 86 89 91 93 95 93 88 87 87 85 83 83 82 84 87 87 84 72 55 42 42 43 32 21 31 52 58 51 42 36 29 19 11 11 13 13 11 11 11 11 11 11 12 12 15 26 44 59 66 66 63 62 61 57 46 37 32 28 25 26 26 23 19 17 27 45 58 64 68 67 66
85 87 93 97 94 89 88 90 93 93 90 89 88 88 90 94 97 99 100 98 96 95 93 88 84 84 87 89 88 81 71 56 42 39 43 39 26 23 37 49 42 31 31 39 42 33 22 16 13 12 12 12 11 12 12 11 11 13 12 11 15 29 51 63 62 62 62 54 44 37 31 25 24 26 24 20 19 19 24 37 49 58 64 64 63
88 90 97 97 90 87 90 94 94 92 90 89 88 90 94 99 100 100 99 100 100 96 89 85 87 89 89 87 79 69 57 43 39 44 41 26 17 25 36 37 33 35 44 53 58 52 43 36 28 17 12 13 13 11 10 10 11 12 12 14 12 13 27 41 47 51 50 42 36 34 29 23 21 22 25 26 26 26 28 34 43 52 59 62 62
93 95 99 96 89 90 94 95 92 89 88 89 89 92 98 101 99 99 100 100 99 94 89 90 93 91 84 78 71 60 45 37 41 44 29 12 15 29 40 45 49 54 56 57 58 57 54 53 49 36 21 13 12 13 14 13 14 14 12 14 14 12 14 20 25 28 27 24 24 26 24 21 20 25 36 44 44 43 44 43 46 51 55 59 62
98 98 98 95 91 92 94 93 89 86 87 90 92 95 100 100 99 100 100 99 99 97 92 90 88 84 79 72 63 48 35 34 40 35 19 16 31 46 55 61 61 58 56 55 54 53 52 52 55 54 44 29 17 12 12 11 11 13 14 14 15 15 14 14 15 17 20 20 21 22 22 26 33 41 51 57 56 56 58 56 54 54 53 55 60
99 98 96 93 91 93 93 89 85 82 82 87 92 96 97 97 99 101 99 99 101 97 88 82 78 76 72 65 53 41 37 45 48 40 33 39 50 56 57 57 56 54 54 51 48 48 49 49 51 55 57 56 45 32 27 28 28 25 19 15 17 20 24 25 22 22 26 25 20 22 30 40 50 58 63 63 59 57 59 60 59 58 56 55 57
98 99 95 90 89 91 90 84 81 80 82 88 95 98 97 97 100 100 99 100 100 94 86 80 74 68 64 56 45 40 48 56 54 48 49 53 55 54 53 52 52 52 50 47 46 46 45 46 48 49 52 61 65 63 61 64 66 61 48 40 41 46 56 63 56 47 50 51 43 40 44 50 58 63 63 64 62 57 56 59 59 59 60 58 56
98 96 92 90 90 90 88 84 82 84 87 93 99 100 99 99 99 99 99 101 98 91 83 73 65 62 59 48 38 41 53 58 54 52 54 53 51 53 53 50 49 48 46 45 45 44 43 43 42 42 45 46 42 39 42 48 55 60 55 49 50 54 60 61 48 35 44 58 58 52 51 54 58 60 59 59 61 60 59 59 59 59 61 61 59
96 91 88 88 88 86 83 81 82 87 92 98 101 99 97 98 98 99 100 98 92 86 76 63 58 59 53 40 37 49 59 60 56 54 52 52 57 62 58 52 50 49 47 49 49 49 50 48 41 39 42 36 22 14 16 21 25 30 29 24 24 25 26 24 18 17 34 52 54 48 47 48 50 54 55 56 58 59 59 59 59 60 60 61 62
97 93 90 90 88 86 82 78 81 87 91 96 99 97 96 97 95 92 91 85 78 74 66 54 49 46 38 35 46 60 65 61 55 50 50 54 60 58 48 45 49 50 49 51 50 46 46 45 38 33 30 22 13 11 14 15 15 16 16 15 14 14 14 13 12 18 32 43 44 41 40 40 40 43 47 50 52 55 58 57 58 59 60 61 63
97 90 89 92 91 87 84 83 87 92 94 96 98 96 96 94 86 80 76 69 62 58 50 41 35 29 28 41 58 66 66 60 48 39 40 43 42 34 27 30 35 34 31 31 28 23 22 22 20 18 16 13 12 13 13 14 14 14 14 14 14 15 15 13 13 23 36 41 40 38 38 37 35 35 38 41 43 47 51 53 54 56 58 60 64
Wind_Speed
4 6 10 12 15 15 14 12 13 17 17 15 15 15 15 15 16 16 16 18 17 16 15 13 12 12 13 13 12 11 10 9 8 8 6 5 5 4 4 2 1 2 2 2 2 3 4 5 6 6 7 7 8 9 10 10 11 12 13 14 15 16 17 17 17 19 21 22 23 24 25 25 25 26 27 26 26 25 25 24 24 26 26 27 29
10 11 8 9 13 13 12 11 12 16 15 12 14 14 14 15 15 15 16 17 16 15 14 13 12 11 13 13 11 10 9 9 9 7 7 5 4 4 3 2 1 1 2 1 1 2 4 4 5 6 6 7 8 9 10 10 11 11 12 14 15 16 18 18 17 19 20 21 23 26 26 24 22 21 22 23 23 24 24 24 25 26 27 28 29
12 9 9 14 15 15 17 15 15 15 12 13 14 15 15 15 15 16 16 16 14 13 13 13 11 11 12 12 12 11 11 11 9 7 6 5 4 3 2 2 2 1 2 3 3 3 4 5 5 6 6 7 8 8 9 9 10 12 13 14 15 15 16 17 17 18 19 20 21 23 23 23 22 17 16 18 20 23 24 25 27 27 27 28 29
19 17 17 19 18 18 21 19 18 15 14 16 15 15 16 15 16 16 15 14 13 12 12 12 11 11 11 11 11 11 11 10 8 6 5 4 3 2 3 2 2 2 2 3 3 4 4 5 5 5 5 5 6 7 8 9 10 12 13 13 14 14 15 15 15 15 17 18 18 22 22 21 20 17 18 23 23 23 23 23 25 26 27 27 27
23 23 22 24 21 18 20 20 18 17 19 19 16 16 16 14 15 15 14 14 13 12 12 12 11 11 11 11 10 9 8 7 6 5 3 3 3 2 2 2 2 2 2 3 3 4 4 5 5 5 5 5 6 7 7 8 9 11 12 12 12 13 14 15 15 15 16 16 16 20 20 17 19 22 25 27 24 20 22 24 25 25 26 26 25
22 24 23 25 25 20 20 21 18 18 20 18 17 16 14 13 14 14 14 14 13 13 12 12 12 10 9 8 8 7 7 7 5 4 3 2 1 0 1 1 2 2 3 4 4 5 5 5 5 5 6 6 7 7 8 9 9 10 11 11 11 13 14 15 15 15 15 16 15 17 19 19 24 27 26 26 26 22 20 22 24 25 24 23 23
19 24 24 24 26 23 22 23 21 20 19 17 18 16 14 14 14 15 14 13 14 14 12 12 12 10 9 8 8 8 7 7 5 5 4 2 1 0 1 1 3 4 4 4 4 5 5 5 5 6 6 7 7 7 8 9 9 10 10 10 11 13 14 14 15 15 16 17 16 18 20 20 21 23 24 26 26 26 23 20 21 24 22 20 22
20 25 26 24 26 26 25 24 22 21 19 18 18 16 15 15 15 15 14 13 14 14 13 11 10 10 9 8 9 8 6 5 4 3 3 2 1 1 1 1 3 4 4 4 5 4 5 5 5 6 6 6 7 7 8 9 9 11 11 10 11 13 13 13 15 16 18 19 19 20 21 20 18 18 22 23 22 25 29 25 20 22 23 20 19
22 26 28 26 24 23 24 25 23 21 19 19 18 17 15 15 15 14 14 14 14 13 12 11 10 10 9 8 7 6 5 4 4 3 2 2 1 1 1 2 3 3 3 4 5 5 5 5 5 5 5 6 6 6 7 8 9 11 11 11 12 12 12 13 15 18 18 19 19 20 20 20 20 20 20 21 21 23 27 26 22 21 24 21 17
20 22 26 25 21 18 21 25 24 21 19 19 17 16 17 16 15 14 14 15 13 12 12 10 10 9 8 7 6 5 4 4 4 4 2 1 1 2 2 2 2 2 3 4 5 5 5 5 5 5 6 6 6 7 8 8 8 10 11 11 11 12 12 12 15 18 17 17 18 19 20 21 22 22 22 23 24 23 23 25 24 23 23 22 21
19 19 21 21 18 16 19 23 25 22 19 19 18 17 17 16 16 16 15 14 13 12 12 10 9 8 6 6 6 5 5 5 4 4 2 2 2 2 2 2 2 2 3 3 4 5 5 5 6 6 6 7 8 9 9 9 9 10 11 11 11 11 13 13 15 16 16 16 18 19 18 19 20 21 23 24 24 23 24 24 24 24 24 23 23
19 20 20 19 18 17 18 21 25 24 20 20 19 18 17 16 16 17 16 14 13 13 13 10 8 7 6 6 6 6 5 5 5 4 3 3 3 3 3 2 2 3 3 3 3 5 4 5 7 7 7 8 9 10 10 10 9 10 11 12 12 11 11 13 15 17 16 16 18 18 18 18 18 19 21 22 22 22 24 23 22 24 25 24 23
19 21 23 20 18 19 20 22 25 25 22 21 21 21 20 19 17 16 17 16 14 13 13 10 8 6 5 4 5 5 5 5 5 5 4 3 3 3 3 3 3 3 2 2 3 5 5 6 8 8 8 8 9 10 10 10 10 10 11 12 12 11 12 13 15 16 17 17 17 18 18 18 18 19 19 19 20 21 22 22 22 22 24 24 22
21 23 23 20 19 20 21 23 24 25 25 23 23 23 22 21 20 18 18 17 15 14 12 9 7 5 4 3 4 5 5 6 5 5 5 4 3 4 4 4 3 2 2 3 4 5 6 7 7 7 8 8 9 10 10 10 10 10 10 11 10 9 10 12 13 13 15 16 17 18 18 17 18 18 18 19 20 21 21 22 23 23 23 23 20
23 23 22 21 20 22 22 22 23 25 27 26 25 24 23 23 22 20 19 18 16 13 9 6 6 5 4 4 4 5 5 6 5 5 5 5 4 4 4 4 3 2 3 4 5 6 6 6 7 6 7 8 9 11 11 10 11 10 10 10 10 9 9 11 11 12 14 16 17 19 19 18 19 19 18 18 18 19 20 20 22 24 25 24 22
24 24 23 22 21 23 23 22 23 24 27 28 26 25 24 23 21 18 17 16 13 10 7 6 5 5 5 4 5 6 5 5 4 5 6 6 5 4 4 5 5 4 5 5 6 6 6 6 6 6 7 9 9 11 11 10 9 8 9 11 13 12 12 14 15 14 16 17 18 19 20 20 20 20 19 18 17 17 18 19 21 22 24 24 24
24 24 23 22 21 22 23 23 23 22 23 25 24 22 22 20 18 17 15 13 11 9 7 5 5 5 5 5 6 6 6 5 5 6 7 7 5 4 5 6 7 6 6 6 6 6 6 6 6 7 8 9 10 10 11 11 10 10 11 13 14 14 14 16 17 17 17 18 19 19 20 21 21 21 20 19 18 18 17 17 18 20 21 23 24
24 24 22 22 23 22 23 23 22 21 21 21 21 20 19 18 16 15 13 11 10 8 6 5 5 6 6 6 7 7 6 6 7 7 6 6 5 5 6 7 7 7 7 6 6 6 6 6 7 8 9 9 10 10 10 11 11 12 13 13 13 14 14 16 17 17 17 18 19 19 20 21 21 21 21 20 20 19 18 16 16 19 21 21 22
25 24 23 24 24 23 23 22 21 21 21 20 20 19 18 17 15 13 12 10 8 7 6 5 5 4 5 6 7 7 6 7 8 7 6 6 5 6 8 8 8 7 7 7 6 6 7 7 8 8 9 9 9 10 10 11 11 12 12 11 12 14 15 16 17 18 18 18 19 20 21 21 22 22 22 22 22 20 19 18 17 17 18 20 21
26 24 23 25 24 23 23 23 23 22 21 20 20 19 18 16 15 13 11 9 7 6 6 5 4 3 5 6 6 7 7 8 8 7 6 6 6 8 10 9 9 8 8 7 7 8 8 8 9 9 10 10 9 10 10 11 11 11 11 12 13 15 15 16 17 18 19 19 19 20 21 21 21 21 22 23 23 21 20 20 19 17 16 18 21
26 24 23 24 24 24 25 25 24 23 21 20 19 18 17 15 14 13 10 8 7 5 5 5 4 4 6 6 6 7 8 9 8 7 7 8 9 11 11 10 10 9 8 7 8 9 8 8 9 10 11 11 10 10 10 10 10 10 11 13 14 14 14 16 16 17 18 19 20 20 21 21 21 20 21 22 22 21 20 19 19 21 19 19 22
26 25 25 25 26 25 26 27 25 22 20 19 18 17 16 15 13 12 10 8 7 6 5 5 4 5 6 6 7 9 9 9 9 9 9 10 12 12 11 11 10 9 7 8 9 9 9 10 9 9 10 11 11 10 9 10 10 11 12 13 13 14 15 16 15 16 17 19 20 21 21 22 21 21 21 20 21 21 21 20 19 21 22 22 22
25 26 26 27 26 26 27 27 24 21 20 19 18 17 16 14 13 11 9 8 7 5 5 5 5 5 6 7 9 10 10 10 10 11 12 13 13 13 12 11 9 8 7 9 10 9 10 8 5 6 10 10 11 11 10 10 11 12 13 13 13 15 15 15 15 16 16 17 19 20 21 22 23 24 22 20 21 21 21 23 22 21 23 24 24
25 26 27 27 26 25 24 23 21 21 21 19 17 16 15 13 12 11 10 9 7 6 5 5 6 7 8 9 11 10 10 11 13 14 14 14 14 13 12 10 8 8 7 8 9 7 7 7 5 8 10 9 11 12 12 12 12 12 13 13 14 15 15 15 16 16 16 17 18 19 20 21 22 24 24 23 24 23 22 22 23 23 24 23 23
25 26 29 29 26 23 22 22 22 22 21 18 16 16 15 13 11 11 10 9 7 6 6 6 7 8 10 11 12 11 12 14 15 16 15 14 14 13 11 9 8 8 7 8 8 6 7 10 9 8 8 8 10 11 11 12 13 12 12 13 13 14 14 15 16 15 15 17 18 18 19 20 21 23 24 24 25 25 24 22 20 21 23 22 21
26 26 30 29 25 23 23 23 23 21 20 19 17 16 14 12 11 10 9 9 8 6 7 7 8 10 11 12 13 14 16 17 17 17 16 14 14 13 10 9 8 9 8 9 10 8 8 11 10 7 8 10 10 9 9 10 12 12 12 12 13 13 13 14 15 14 15 17 17 18 18 19 21 23 25 25 25 24 26 25 23 21 21 21 20
26 26 29 28 25 25 26 25 23 21 19 18 17 15 14 13 12 11 9 8 7 7 8 8 9 11 11 12 14 17 19 19 18 17 15 14 14 12 10 10 10 10 11 11 10 10 10 11 10 9 8 9 10 10 10 9 11 12 12 12 12 13 13 13 14 14 14 16 17 18 17 18 21 22 23 25 25 25 25 25 25 23 21 20 20
28 27 27 28 26 25 24 24 22 20 18 18 17 15 15 14 13 11 9 7 7 7 8 9 10 11 11 13 16 19 20 19 18 17 15 14 13 11 10 10 10 11 12 11 10 11 11 10 9 8 8 8 9 11 11 10 11 12 11 11 12 12 12 12 13 14 14 15 16 17 17 18 18 19 21 24 26 26 25 24 24 24 22 21 20
29 28 27 27 26 24 23 23 21 20 20 20 18 16 15 13 13 11 8 7 7 8 9 10 10 11 11 13 17 20 21 19 18 17 14 13 12 10 10 10 10 11 13 12 11 11 10 9 8 8 9 10 10 13 14 12 11 12 11 12 13 13 13 13 13 14 16 16 16 16 17 17 16 17 19 23 27 29 28 26 25 25 25 23 21
28 27 26 27 25 23 23 23 21 21 23 22 18 16 15 14 12 10 8 8 9 10 10 11 11 11 11 13 17 21 21 19 17 15 12 11 11 11 11 11 11 12 12 12 11 10 9 9 9 9 10 12 14 15 15 13 12 13 13 13 14 15 14 14 14 15 16 17 17 17 17 16 15 15 17 20 25 29 30 28 27 27 29 29 26
28 26 25 26 25 23 24 24 22 23 26 24 19 16 15 13 11 9 9 9 10 11 11 12 12 13 12 13 17 20 19 17 15 12 11 12 12 11 11 11 12 12 11 10 10 9 9 9 10 11 12 15 16 16 14 12 12 14 15 13 13 14 14 14 15 15 16 17 18 19 20 18 15 14 14 16 20 24 28 28 27 27 29 32 31
28 28 27 27 26 27 29 28 26 26 26 22 19 19 18 15 14 12 10 9 11 12 12 13 13 14 14 13 15 16 15 14 13 13 13 13 12 12 12 11 12 12 11 11 10 10 11 11 12 12 13 15 16 14 13 12 12 14 16 15 14 14 14 15 15 16 17 18 20 21 22 21 17 14 12 14 17 19 23 25 25 25 26 30 34
29 30 29 29 30 32 32 31 29 27 24 21 19 19 18 16 14 13 11 11 13 13 13 14 15 15 15 15 15 16 16 15 14 14 13 13 13 13 13 12 13 12 12 12 12 12 13 13 12 12 13 14 15 13 11 11 12 14 16 16 15 16 16 16 17 17 18 20 21 21 22 22 19 15 13 14 16 16 18 20 21 21 21 26 33
29 29 27 27 31 33 30 28 28 26 23 21 18 15 14 12 11 11 12 13 14 14 15 16 17 17 16 16 16 17 16 16 15 14 14 14 14 14 14 13 14 14 13 13 13 13 13 12 12 12 12 13 14 12 10 11 12 15 17 16 15 17 18 18 18 19 20 21 21 22 22 23 21 18 15 15 16 15 15 16 18 18 18 23 29
29 28 26 28 33 34 30 28 27 25 21 18 16 14 14 13 12 13 15 15 15 16 17 18 18 18 17 17 17 17 17 16 15 14 14 14 14 15 16 16 16 15 14 13 12 12 13 12 12 12 11 13 13 11 9 10 14 17 17 15 15 17 18 19 19 20 21 22 22 22 22 22 22 21 19 18 17 16 15 15 17 18 19 21 25
30 29 28 32 36 33 28 25 23 22 19 17 16 16 15 15 15 15 16 16 17 17 18 19 19 19 18 18 18 17 17 17 15 15 15 14 14 16 18 18 17 16 14 13 12 12 12 12 12 12 12 12 13 11 9 11 15 17 16 14 14 16 17 19 20 21 22 22 22 22 23 23 23 22 21 20 19 17 15 15 16 18 19 21 22
30 28 29 34 35 29 26 24 22 21 19 18 18 17 17 17 17 17 17 18 18 18 19 19 19 19 19 19 18 17 17 17 16 16 16 16 17 19 19 18 16 15 13 13 12 12 12 12 12 13 13 13 13 12 10 11 15 17 15 12 11 13 15 17 18 20 21 23 23 22 22 23 24 24 23 21 21 20 18 16 17 17 19 21 22
30 28 29 33 32 28 26 24 23 23 20 19 20 19 17 18 18 18 19 19 19 19 19 19 19 19 19 19 18 18 18 17 17 18 19 19 19 20 20 18 16 14 13 13 13 12 13 12 12 13 13 13 13 12 10 11 14 17 16 12 9 10 12 13 15 17 18 21 22 22 22 23 24 24 23 22 22 23 22 19 18 18 18 21 22
30 29 30 33 31 28 26 24 25 24 22 20 20 19 18 19 20 20 21 21 20 20 20 20 19 19 19 18 18 18 17 17 18 20 20 20 20 20 19 17 15 14 14 13 13 13 14 13 13 13 13 13 13 13 11 12 13 16 16 13 10 10 11 11 12 14 15 18 20 21 21 22 23 23 23 22 21 23 24 23 21 20 19 20 21
30 30 32 33 30 27 26 26 25 23 22 22 20 19 19 20 20 21 22 23 22 20 20 20 20 19 19 18 18 18 19 19 20 21 21 20 20 20 19 17 15 14 14 14 14 14 14 14 13 12 13 13 14 14 13 13 12 13 14 13 11 10 11 11 11 12 13 15 17 18 19 20 21 22 22 21 21 22 24 24 24 23 22 21 19
30 30 30 28 25 26 27 26 24 22 22 22 20 20 20 20 20 21 22 23 23 22 21 20 20 19 19 19 18 19 21 21 21 22 21 20 19 19 18 17 15 14 15 15 15 15 15 15 14 13 13 13 13 14 14 14 14 13 12 13 14 14 11 10 10 11 12 13 15 16 17 18 20 20 20 20 20 21 23 23 23 22 21 20 18
31 31 28 25 24 26 27 24 22 22 22 20 19 20 20 20 20 20 20 21 22 22 21 20 20 20 19 20 21 21 22 22 22 21 20 19 19 18 17 16 15 16 17 16 15 15 15 15 14 13 13 13 13 13 13 14 15 14 13 12 14 16 15 11 10 11 12 13 14 15 15 16 18 19 19 20 20 21 22 22 22 21 20 19 18
34 32 28 25 27 28 26 24 23 22 21 19 19 19 19 19 20 20 21 22 21 21 22 21 20 20 20 21 23 22 22 22 21 20 19 19 19 18 17 17 17 17 16 15 14 14 14 14 14 13 14 14 13 13 14 14 15 15 15 14 14 15 16 14 12 12 12 12 13 13 13 15 16 17 19 21 22 23 23 23 23 22 21 20 18
35 30 25 25 29 28 24 24 24 22 20 19 19 19 19 20 20 20 24 27 23 21 22 21 19 20 22 23 22 22 22 22 20 19 19 19 20 19 17 16 16 15 14 13 13 12 12 12 12 12 13 14 13 13 14 14 15 15 15 15 15 15 16 16 15 15 14 14 14 13 13 15 17 19 20 20 22 24 25 25 24 23 22 21 20
30 27 25 25 27 27 25 24 24 21 19 18 18 19 20 20 20 21 27 29 24 21 23 22 21 23 23 22 22 22 22 21 19 18 19 19 19 17 15 14 13 12 12 11 11 11 11 11 11 10 10 11 13 14 15 16 16 15 15 16 16 16 17 17 17 17 16 15 14 14 15 17 19 20 19 19 20 21 22 23 24 23 23 22 21
26 27 29 28 26 26 26 26 25 22 19 18 18 18 19 21 21 21 24 25 24 24 26 25 25 25 23 22 22 22 21 19 17 17 18 18 16 15 13 12 11 11 11 11 11 11 11 11 11 10 9 9 9 11 13 13 13 13 13 14 16 16 17 17 17 17 16 15 15 16 16 17 18 19 18 18 18 19 19 19 20 21 22 23 22
27 29 32 30 28 28 28 27 26 22 19 18 19 18 19 20 21 22 22 21 21 26 28 27 27 26 24 23 23 22 21 18 16 16 16 14 14 13 13 12 11 10 10 11 11 12 11 11 11 10 9 9 8 7 7 5 4 5 7 9 10 11 12 12 10 10 11 12 14 16 16 15 15 16 15 15 15 17 18 19 18 19 20 21 22
28 29 31 30 30 30 29 28 25 22 20 19 19 19 20 21 21 22 22 20 21 27 30 29 28 26 24 23 23 22 20 18 16 16 15 14 13 12 13 15 16 15 13 12 11 11 11 10 10 9 9 8 8 9 9 9 9 9 6 5 4 5 6 6 5 8 12 12 10 11 12 12 12 13 13 12 13 14 17 18 19 18 18 19 19
32 33 32 31 31 30 30 28 25 23 21 20 20 21 22 22 22 22 21 22 26 30 31 30 29 26 25 25 23 20 17 16 18 19 20 20 18 15 16 20 20 19 19 17 15 14 12 11 12 12 11 10 11 12 12 12 12 12 10 9 9 8 9 9 9 12 15 12 8 9 10 10 11 12 12 13 13 13 14 16 17 18 18 18 18
35 33 31 31 32 32 31 28 25 24 23 22 22 22 22 24 24 23 24 28 32 33 32 31 30 27 26 25 21 18 17 17 19 22 22 22 21 18 19 21 21 20 20 20 19 19 16 15 17 16 14 13 13 13 13 13 12 12 11 10 10 10 10 10 11 14 14 11 8 9 10 10 11 12 12 12 13 13 13 14 15 16 17 18 18
36 35 33 35 36 35 32 29 26 25 24 24 24 23 24 27 28 27 28 31 32 32 31 31 29 27 26 24 20 18 18 17 19 22 23 21 19 17 17 19 19 19 18 16 15 15 13 13 15 16 15 14 14 13 13 12 12 11 11 11 11 10 9 9 11 14 13 9 8 9 9 9 10 11 12 12 12 12 12 13 13 14 15 16 17
Wind_Direction
49 70 128 144 147 144 143 147 148 143 145 154 160 164 165 164 162 164 175 177 175 177 178 176 173 174 177 178 172 159 151 148 148 150 152 160 160 158 169 152 114 241 257 281 288 286 284 291 299 302 307 312 311 312 314 313 313 314 312 310 308 306 305 305 304 301 299 299 300 299 297 296 293 290 288 284 279 276 275 271 268 269 265 259 258
67 58 85 128 137 136 141 142 137 136 142 157 161 163 169 166 163 172 183 183 180 181 176 170 175 190 187 173 158 150 145 139 145 156 156 160 159 137 139 119 73 271 279 328 339 332 326 324 323 323 326 317 311 314 316 318 319 316 315 313 311 310 310 311 312 308 304 304 306 304 303 304 300 292 289 289 287 282 277 271 269 270 266 260 259
119 116 132 147 146 146 150 148 138 136 155 176 173 172 178 177 172 182 187 182 182 183 177 170 178 198 191 163 150 153 150 141 137 143 145 150 159 134 110 111 80 40 1 5 356 348 344 337 328 325 326 318 317 321 320 323 321 318 320 316 314 314 312 315 316 311 309 311 311 307 307 310 307 301 293 294 295 289 282 277 278 278 271 267 264
140 149 157 157 155 152 151 151 144 150 176 179 176 181 184 184 179 183 188 184 184 182 178 179 186 192 179 157 156 159 149 139 127 127 133 126 129 110 89 84 64 48 13 9 354 343 341 334 333 326 323 322 323 325 322 322 322 320 320 317 316 316 314 316 317 315 316 317 314 309 309 307 305 310 307 302 301 295 291 288 287 285 279 273 268
148 151 161 163 161 156 153 153 149 163 181 177 181 189 185 184 181 180 185 183 180 182 182 182 189 187 169 155 155 149 134 130 124 122 121 100 92 79 83 72 51 34 353 2 351 344 350 342 343 339 334 340 333 327 324 322 325 323 322 321 319 318 317 318 321 325 324 320 313 308 309 304 300 309 310 306 306 301 297 297 293 291 286 274 264
157 154 163 164 159 160 161 159 159 169 178 178 184 189 182 179 180 176 178 180 179 182 181 182 196 193 164 153 146 134 129 133 132 132 139 125 111 77 55 50 36 16 348 360 360 358 2 353 353 352 346 349 339 333 334 330 329 327 326 324 322 324 323 320 323 327 326 325 318 309 309 307 304 309 311 309 309 307 302 302 301 302 297 280 268
161 159 165 167 161 164 165 164 173 179 178 179 180 182 184 182 181 176 176 183 181 176 175 182 199 193 165 156 146 138 138 137 140 154 165 160 121 248 288 350 12 10 359 4 11 4 3 4 4 357 352 349 340 338 338 332 329 327 325 326 327 330 329 325 327 330 331 331 327 321 321 318 307 304 309 309 308 310 312 310 303 304 306 292 277
166 163 165 170 165 165 165 164 174 180 177 179 176 175 182 183 182 177 177 185 176 168 173 177 186 184 164 152 143 138 142 146 154 167 165 161 150 197 279 15 16 17 13 12 15 6 2 9 8 359 354 348 345 342 333 329 329 327 329 336 336 333 331 329 330 335 336 334 333 332 335 336 325 313 311 308 303 308 311 312 309 308 311 303 283
167 167 169 170 164 167 169 164 166 173 171 170 171 171 173 179 178 171 174 180 170 162 165 165 170 170 154 146 143 133 132 149 159 155 151 183 172 106 68 32 26 26 25 18 14 8 3 6 7 3 356 352 352 343 331 331 332 331 336 344 339 333 333 330 331 337 338 335 336 337 338 342 339 335 331 321 314 313 310 311 314 312 314 312 297
166 168 170 166 162 169 170 164 164 168 164 158 165 170 167 172 172 163 169 171 164 160 159 158 162 158 147 149 152 139 142 158 161 163 174 191 107 83 71 44 49 42 30 22 13 14 12 10 13 11 4 359 354 346 343 343 342 345 348 346 340 336 335 332 332 339 339 336 340 341 340 342 341 340 341 336 330 324 316 315 315 311 310 308 303
166 162 162 160 164 169 166 163 162 164 164 159 166 171 164 168 169 162 166 166 162 166 163 159 156 152 150 152 155 160 170 175 171 168 157 119 94 78 67 57 63 49 32 20 9 19 21 16 17 15 9 3 358 357 356 354 355 357 355 350 347 343 340 338 336 341 342 341 344 345 342 341 337 334 338 341 339 333 326 322 318 317 311 301 300
165 161 159 159 165 170 161 154 155 157 159 156 160 167 164 167 171 162 163 168 169 169 164 159 157 161 164 161 165 166 166 174 165 143 122 105 94 84 80 68 62 49 38 23 15 26 25 19 22 19 14 8 1 2 1 360 6 5 358 353 351 349 348 344 340 343 346 346 348 347 344 343 337 333 336 339 338 335 331 326 323 325 319 307 303
166 164 163 162 162 167 161 151 151 153 154 154 155 160 159 165 174 167 163 167 165 162 162 163 168 172 168 163 158 146 146 156 141 121 116 108 102 101 101 88 71 53 33 34 35 38 36 31 30 22 17 12 5 7 6 3 10 11 1 354 352 355 356 348 344 346 347 348 347 343 343 344 340 337 338 337 335 334 332 330 329 332 327 320 312
170 168 164 163 161 165 161 153 153 153 155 161 160 157 155 158 168 167 160 161 162 164 170 174 173 156 145 141 124 126 136 137 127 122 119 108 105 101 96 89 77 63 48 53 54 51 48 41 34 23 17 16 14 15 12 8 17 15 358 350 352 356 354 344 340 340 340 341 342 340 343 344 339 338 338 338 341 340 339 336 334 335 334 332 329
175 172 165 163 164 166 162 156 156 153 155 162 161 159 156 156 161 161 155 159 168 171 169 168 160 134 131 134 123 129 135 133 134 134 123 112 111 100 87 88 94 98 81 71 66 59 55 48 37 27 22 23 23 19 15 16 21 11 354 355 5 6 359 351 347 343 343 347 350 351 353 352 348 346 344 343 343 339 340 345 342 339 338 338 339
176 170 164 164 167 167 162 159 157 151 153 159 157 157 159 157 158 157 155 159 165 161 148 148 144 130 138 139 129 131 130 129 129 121 115 111 110 99 87 98 110 111 99 86 78 66 59 53 44 36 32 29 27 23 21 23 21 9 5 11 17 16 11 9 11 8 6 6 4 3 3 3 0 359 355 350 345 340 340 345 343 340 338 336 337
172 164 163 165 168 168 161 160 157 148 151 156 153 154 157 155 154 155 156 153 146 142 144 144 130 119 124 127 126 123 118 119 111 104 108 108 107 105 105 112 115 114 107 93 80 70 59 54 51 45 39 34 32 31 29 30 27 23 22 21 19 19 13 12 16 17 16 14 10 8 9 10 9 7 3 357 352 349 345 341 340 341 341 338 336
166 161 164 167 169 167 160 159 158 149 149 153 152 154 154 154 157 156 148 141 137 139 143 136 125 116 111 113 116 116 116 116 109 105 106 106 105 113 120 123 118 115 111 95 80 75 67 60 56 46 38 34 32 31 27 25 25 23 23 20 17 18 14 13 16 17 15 15 14 14 15 15 15 12 10 7 2 358 353 347 342 344 346 343 340
164 161 165 171 170 165 160 159 157 151 148 148 148 150 153 155 157 149 139 139 143 140 135 130 124 111 109 111 110 109 113 116 116 116 112 109 110 120 125 123 118 115 106 91 77 73 68 57 50 41 33 29 25 25 24 20 17 16 19 19 16 18 18 17 18 19 18 19 23 23 21 20 19 17 15 12 9 5 3 360 352 349 348 346 345
165 163 165 173 171 164 160 158 156 153 148 146 149 150 151 153 156 155 152 151 149 136 130 129 113 97 107 114 114 114 118 121 122 121 117 120 127 129 125 120 118 114 102 88 71 63 59 51 46 40 32 26 19 18 21 20 17 17 22 24 23 23 23 22 22 23 24 26 28 27 24 22 20 19 19 15 12 9 7 6 4 2 357 353 353
166 165 167 172 171 165 161 159 159 157 152 150 153 152 151 153 155 158 157 152 148 137 128 124 111 109 116 117 118 120 124 127 126 123 124 130 132 129 124 121 122 111 92 78 69 63 56 47 47 44 34 27 20 17 21 25 25 26 28 28 29 28 25 24 23 24 26 26 26 24 22 22 20 19 21 19 16 13 7 5 6 7 8 7 0
167 168 169 171 171 167 163 164 163 159 154 151 152 152 155 156 152 151 151 146 143 137 128 124 121 124 125 122 120 123 126 127 126 126 129 131 130 128 125 125 121 106 84 73 71 67 56 45 39 40 38 31 27 26 28 32 31 30 30 27 27 28 26 24 21 20 22 22 22 21 20 22 21 19 19 17 15 16 12 8 6 7 12 11 2
166 170 170 168 169 168 165 165 163 158 154 151 152 155 155 154 151 150 149 141 137 136 131 129 131 131 130 127 127 128 129 128 130 131 131 129 129 128 127 124 114 97 83 72 65 61 59 52 28 30 41 38 37 37 33 35 36 33 31 28 27 28 26 22 19 18 18 18 20 22 23 26 26 25 24 22 23 23 19 15 14 15 18 18 12
165 168 167 165 164 163 161 158 157 156 155 153 154 155 152 148 147 145 142 136 134 136 136 135 132 131 133 133 131 131 133 135 137 135 131 129 129 128 122 114 102 90 82 76 73 67 62 60 40 33 43 48 45 42 35 33 35 33 31 29 27 29 27 24 22 18 14 16 21 25 28 30 30 29 29 29 31 30 25 20 19 18 19 19 19
164 164 164 163 159 157 155 156 158 158 157 155 153 153 150 147 144 142 140 137 135 137 140 138 134 134 136 134 134 138 143 143 140 136 132 131 131 128 116 100 95 90 82 83 92 92 68 62 58 47 49 55 50 46 44 37 31 30 33 32 29 29 28 27 27 20 13 18 24 26 29 31 32 33 30 29 29 28 27 25 22 18 15 13 14
162 161 163 162 159 159 159 161 162 159 158 157 153 151 149 145 143 143 140 138 138 142 144 140 141 143 141 138 141 146 146 144 141 138 135 132 131 126 111 95 93 91 84 80 81 82 73 70 74 70 58 54 49 54 65 53 35 27 32 36 34 32 31 30 31 26 17 19 24 25 25 27 30 31 29 28 28 28 27 25 24 23 18 13 11
161 160 163 163 162 163 162 164 163 158 155 154 151 150 148 145 144 142 141 141 141 144 146 145 147 148 145 143 146 147 145 143 141 139 136 134 130 120 103 94 95 92 86 82 80 81 77 71 70 65 53 49 48 51 61 62 49 34 31 37 39 36 35 32 32 33 26 20 20 22 23 23 25 26 22 20 22 24 25 24 22 23 22 20 16
165 164 166 165 164 160 157 159 158 153 152 151 149 148 147 147 144 139 143 149 150 151 150 149 150 149 148 145 146 147 146 143 142 139 136 131 125 113 100 98 100 95 89 87 86 84 78 67 61 55 48 49 56 56 52 57 63 50 32 38 47 44 42 40 36 38 37 30 22 19 22 23 23 24 19 15 13 14 17 20 21 21 23 25 21
169 169 168 166 163 157 151 152 151 148 149 150 151 151 147 146 142 142 153 159 156 155 151 150 152 150 146 143 145 147 146 143 143 139 132 123 115 108 104 101 99 96 91 87 85 82 77 66 57 56 57 58 63 64 56 55 71 69 46 45 55 54 52 51 45 41 40 38 33 23 21 21 21 23 22 17 12 7 8 16 22 24 27 31 30
171 169 167 164 159 153 150 150 147 147 151 152 153 151 146 145 144 147 157 157 155 155 153 154 153 148 142 140 145 147 145 143 141 134 125 118 112 109 108 103 98 95 92 88 86 83 78 70 65 66 70 69 65 64 61 58 72 78 65 56 60 60 58 56 50 44 39 39 39 34 27 22 21 22 23 23 17 7 5 13 18 21 27 32 33
170 166 161 157 154 151 150 148 145 151 156 154 151 150 149 152 156 158 160 158 156 155 155 155 150 144 141 138 141 144 142 139 134 126 121 119 116 113 110 105 100 96 92 90 90 87 82 79 80 78 76 73 68 65 65 65 72 80 75 65 63 63 63 61 56 50 45 43 44 43 38 33 29 26 21 24 23 10 6 13 14 11 20 28 28
167 164 158 153 152 152 151 149 149 154 156 154 157 163 165 168 174 180 184 177 164 157 155 151 145 143 141 138 137 136 133 130 127 125 124 121 119 116 111 105 99 94 93 94 95 96 91 87 86 83 78 76 72 68 69 70 72 78 76 67 62 63 63 62 61 57 54 52 49 46 44 40 37 38 34 32 32 17 9 16 15 7 14 25 25
164 162 157 155 156 156 155 154 155 157 158 160 168 174 173 175 182 186 184 174 163 157 153 149 146 145 142 138 136 132 130 129 129 129 127 124 122 118 111 105 99 95 98 102 102 100 95 90 86 82 79 79 76 70 70 72 72 76 75 66 60 62 62 60 61 60 58 57 54 49 48 44 39 43 50 53 49 31 16 19 21 13 13 21 25
162 158 155 154 156 157 157 160 163 163 162 162 165 167 166 169 175 170 162 158 156 153 151 149 146 145 143 140 137 133 132 132 131 131 130 127 124 118 112 107 103 101 104 107 106 102 96 92 86 81 81 82 80 75 71 75 76 75 74 68 60 60 61 60 60 60 58 57 56 53 50 47 43 42 48 57 61 50 29 23 26 25 21 22 25
160 156 152 153 157 160 163 166 166 164 157 151 151 151 151 153 155 153 152 152 152 150 149 148 145 144 143 140 137 136 134 133 133 133 131 128 124 121 117 112 110 110 112 111 108 103 97 92 87 85 86 86 84 81 77 82 83 76 71 68 64 62 63 62 61 61 59 56 55 54 52 49 47 44 45 51 58 53 36 27 29 29 27 26 25
161 156 154 158 162 164 163 161 158 156 152 148 149 149 148 149 151 151 151 152 151 149 148 146 145 145 144 141 140 139 136 135 136 134 132 130 129 127 123 118 117 117 117 113 108 103 98 95 93 91 89 88 88 87 86 90 91 84 74 65 63 63 63 62 59 58 59 58 54 53 52 52 50 48 45 47 54 53 41 32 33 31 28 30 29
160 156 158 164 165 160 155 153 150 150 151 150 150 150 149 149 150 151 152 152 151 150 148 146 144 144 145 144 144 142 138 136 136 137 137 136 133 129 123 120 121 121 118 113 108 105 102 101 100 97 93 91 90 91 94 97 96 93 85 72 63 61 58 56 56 54 54 56 55 52 51 52 52 50 47 45 50 56 52 39 36 35 32 32 30
161 155 158 164 161 153 152 152 149 150 153 151 150 151 151 150 150 151 153 152 151 149 147 146 145 144 144 143 144 142 138 137 139 143 142 137 133 129 123 122 123 122 118 113 108 106 105 103 102 101 97 94 92 94 98 101 99 96 90 78 67 67 61 53 52 50 48 49 51 51 50 50 51 50 48 45 46 55 60 52 41 37 35 34 32
163 157 155 158 156 151 151 150 149 151 152 150 151 152 151 151 152 153 154 154 153 150 148 147 145 144 143 142 142 141 138 142 147 146 142 138 135 129 123 121 120 117 114 111 110 111 109 106 104 102 100 100 99 98 98 98 99 99 95 85 69 67 69 62 55 51 48 47 46 48 49 49 50 49 47 45 45 52 60 57 48 41 37 38 36
161 158 157 158 155 152 151 151 150 150 150 151 153 153 154 154 154 154 155 154 153 150 149 147 145 145 144 141 141 143 146 150 151 146 142 139 134 127 121 118 116 116 118 117 116 116 113 109 106 102 102 102 102 100 97 93 92 95 101 102 92 75 67 64 63 57 50 48 48 49 49 48 49 48 46 44 44 50 57 58 53 47 41 39 37
160 159 158 157 155 153 152 151 150 149 150 152 154 154 155 154 152 153 153 152 151 150 149 146 145 145 143 141 144 150 153 153 150 145 142 137 131 126 123 122 124 128 127 122 118 117 114 111 108 105 102 100 98 98 96 93 91 88 91 100 105 100 84 69 68 66 59 54 54 53 51 48 48 47 46 44 45 50 57 60 58 53 46 40 36
162 159 154 151 152 153 152 150 149 150 152 154 156 155 154 154 154 156 154 150 148 148 147 145 144 142 141 146 152 155 154 151 148 145 142 135 130 127 126 128 132 131 126 120 116 115 112 109 107 105 102 98 94 95 94 92 91 88 83 84 94 100 98 87 76 71 64 61 60 56 52 50 50 50 50 50 49 52 57 59 58 55 51 43 37
164 163 156 152 152 153 152 150 149 152 154 155 157 155 154 156 156 155 155 153 148 146 145 143 142 143 147 153 156 154 152 149 147 144 140 135 131 129 129 132 130 126 123 121 118 116 111 107 103 99 98 98 95 95 95 92 90 90 88 85 84 90 95 94 89 83 76 70 67 62 54 52 53 53 51 51 51 50 51 54 53 49 47 43 37
167 165 158 154 153 152 151 150 150 154 157 157 159 157 154 155 155 155 159 157 148 142 145 143 142 148 153 153 152 151 150 149 147 144 140 135 131 129 128 128 125 124 125 124 121 119 114 109 105 98 95 95 96 96 95 92 90 87 86 85 83 83 86 87 85 82 77 72 70 66 60 56 54 52 47 44 45 45 42 42 44 43 41 40 37
164 161 156 154 154 152 151 151 153 157 159 158 160 159 156 156 155 156 161 160 152 147 150 149 148 151 151 149 149 151 150 148 144 141 138 133 128 127 127 128 129 131 132 129 128 127 123 118 115 109 102 98 97 98 97 94 90 88 87 88 86 82 81 81 81 78 74 71 71 68 62 56 51 47 41 36 39 42 38 33 33 36 37 38 36
162 161 158 155 155 154 152 153 157 161 160 159 163 163 160 158 157 156 159 160 159 159 157 154 152 152 149 148 151 150 146 142 138 136 133 129 127 129 131 132 135 137 137 135 133 129 125 122 120 119 118 110 100 97 93 84 77 74 75 80 82 79 75 72 72 73 71 66 62 58 54 50 45 39 34 29 30 37 40 34 30 31 33 35 35
166 162 159 155 156 157 155 156 160 161 160 162 163 162 161 158 156 156 155 153 156 159 158 154 153 152 150 152 153 149 144 138 132 128 127 127 130 133 133 134 137 138 138 138 135 132 130 127 124 126 126 122 120 120 116 103 89 70 52 50 55 57 55 53 54 63 63 51 42 41 40 38 36 34 32 27 23 27 35 36 33 30 31 31 32
165 162 160 157 158 159 158 159 159 159 160 161 158 157 158 155 153 155 154 151 153 158 160 158 154 150 152 156 155 149 141 134 131 133 136 137 137 141 151 155 152 147 145 142 136 133 129 127 128 128 126 130 137 137 136 142 149 146 131 103 84 70 71 79 87 85 74 54 31 30 33 30 30 33 34 32 27 25 28 31 32 32 31 30 30
170 167 165 163 162 161 161 160 158 158 158 156 154 155 155 152 152 154 154 155 157 159 160 159 155 152 156 159 154 146 139 141 148 153 152 150 151 162 172 168 159 153 151 150 146 140 135 141 149 145 138 144 144 133 126 127 128 129 126 118 110 104 101 104 101 87 77 62 38 36 38 33 33 35 34 31 28 28 26 26 28 29 30 30 30
171 166 164 166 164 161 160 161 160 158 156 153 154 155 154 155 157 158 158 161 163 163 162 161 159 160 161 157 150 145 147 156 164 164 161 161 167 174 175 170 164 162 161 162 162 158 155 162 167 160 150 149 144 132 127 124 119 117 115 107 100 96 95 98 96 86 76 62 48 44 40 35 35 36 34 30 26 26 26 24 24 26 27 28 29
170 166 167 170 170 166 162 159 157 155 154 154 155 155 158 165 168 166 165 167 167 166 165 164 164 165 161 155 151 152 157 165 171 171 170 172 175 173 170 170 170 170 169 171 173 169 164 165 164 156 148 145 139 131 127 123 118 116 113 105 100 97 98 102 97 85 71 56 47 44 40 37 34 33 34 32 26 24 25 24 22 23 24 24 24